Location: Dal�� Lhota
(48.7500°N, 14.0167°E)
Time: 20:28:05
(UTC+00:00)

Transit 2A - Pass Details

Date: 04 August 2021
Orbit: 594 x 964 km, 66.7° (Epoch: 27 September)

Event Time Altitude Azimuth Distance (km) Brightness Sun altitude
Rises 13:55:29 0° 318° (NW) 3,263 9.4 43.9°
Reaches altitude 10° 13:57:58 10° 310° (NW) 2,391 8.9 43.6°
Maximum altitude 14:02:58 36° 246° (WSW) 1,337 10.1 42.8°
Drops below altitude 10° 14:08:22 10° 182° (S) 2,587 9.1 42.0°
Sets 14:11:09 0° 174° (S) 3,566 9.6 41.6°
